Humidity-temperature Sensor

Selected Measurement Type: Relative Humidity

 
Relative Humidity [%]     6 entries per hour
Showing data from 7/27/2014 (07:20:00 Z) to 7/26/2014 (00:01:00 Z)
Previous Next [ Day | 3-Days | 7-Days ]
First Last
Prev [ Day | 3-Days | 7-Days ] Next
First Last

Start Time:     :
End Time:     :     
Time (in GMT) :00 :50 :40 :30 :20 :10
Previous Next [ Day | 3-Days | 7-Days ]
First Last
Prev [ Day | 3-Days | 7-Days ] Next
First Last


123 => good data
MM => data is determined as missing
-- => data not received/configured
Back to Top Back to Top
7/27/2014 08:00 to 7:10 -- -- -- -- 89.56 89.28
7/27/2014 07:00 to 6:10 89.34 89.44 89.56 89.24 89.02 89.48
7/27/2014 06:00 to 5:10 89.40 89.58 89.16 89.28 89.00 88.59
7/27/2014 05:00 to 4:10 88.21 88.69 89.06 89.56 88.09 88.25
7/27/2014 04:00 to 3:10 88.55 88.05 87.89 88.29 88.19 88.21
7/27/2014 03:00 to 2:10 88.19 87.93 87.89 88.01 87.93 87.20
7/27/2014 02:00 to 1:10 87.28 87.60 87.42 87.54 87.85 88.11
7/27/2014 01:00 to 0:10 88.27 87.80 88.25 88.39 87.76 87.85
7/27/2014 00:00 to 23:10 88.25 88.61 87.58 87.48 87.38 87.16
7/26/2014 23:00 to 22:10 86.45 86.33 86.39 86.15 86.09 85.32
7/26/2014 22:00 to 21:10 86.11 86.27 86.43 85.88 85.40 85.84
7/26/2014 21:00 to 20:10 84.95 84.41 84.41 84.93 84.75 85.14
7/26/2014 20:00 to 19:10 84.81 84.59 84.53 84.57 84.33 83.80
7/26/2014 19:00 to 18:10 83.72 83.38 82.83 83.64 83.62 83.76
7/26/2014 18:00 to 17:10 84.41 84.25 83.44 83.72 83.70 83.88
7/26/2014 17:00 to 16:10 84.33 85.80 86.21 87.80 88.13 86.35
7/26/2014 16:00 to 15:10 86.31 86.55 86.01 85.74 85.54 85.90
7/26/2014 15:00 to 14:10 -- -- -- -- -- --
7/26/2014 14:00 to 13:10 85.14 84.77 85.40 84.87 84.91 85.08
7/26/2014 13:00 to 12:10 85.20 85.82 85.58 86.47 85.94 86.77
7/26/2014 12:00 to 11:10 85.84 85.74 85.70 85.58 85.78 85.68
7/26/2014 11:00 to 10:10 85.36 85.97 85.56 85.34 86.03 85.42
7/26/2014 10:00 to 9:10 85.68 85.54 86.33 87.76 89.32 87.04
7/26/2014 09:00 to 8:10 88.41 88.01 89.20 91.73 87.62 89.30
7/26/2014 08:00 to 7:10 90.09 85.86 86.81 89.48 85.40 86.23
7/26/2014 07:00 to 6:10 85.99 85.60 86.09 86.43 85.78 86.39
7/26/2014 06:00 to 5:10 86.29 86.73 86.67 86.49 86.85 86.94
7/26/2014 05:00 to 4:10 87.20 87.95 88.43 86.61 86.33 86.03
7/26/2014 04:00 to 3:10 87.12 88.25 87.10 87.62 86.83 86.39
7/26/2014 03:00 to 2:10 86.96 87.00 85.22 84.81 85.80 85.08
7/26/2014 02:00 to 1:10 85.46 86.57 85.82 85.46 85.84 86.17
7/26/2014 01:00 to 0:10 86.85 87.16 87.72 87.60 86.92 86.75